Weather History for Driggs, ID

Change the Weather History Date:

Saturday, October 20, 2012

  Actual Average (KRXE) Record (KRXE)
Temperature  
Mean Temperature 50 °F 43 °F  
Max Temperature 54 °F 57 °F 77 °F (2003)
Min Temperature 45 °F 30 °F 23 °F (1999)
Degree Days  
Heating Degree Days 16 22  
Month to date heating degree days 364  
Since 1 July heating degree days 722  
Cooling Degree Days 0 0  
Month to date cooling degree days 0  
Year to date cooling degree days 208  
Moisture  
Dew Point 32 °F    
Average Humidity 51    
Maximum Humidity 87    
Minimum Humidity 31    
Precipitation  
Precipitation 0.01 in 0.03 in 0.35 in (2007)
Month to date precipitation 0.74  
Year to date precipitation 10.62  
Sea Level Pressure  
Sea Level Pressure 29.65 in    
Wind  
Wind Speed 12 mph (SSW)    
Max Wind Speed 24 mph    
Max Gust Speed -    
Visibility 9 miles    
Events Rain    
T = Trace of Precipitation, MM = Missing Value Source: NWS Daily Summary

Daily Weather History Graph

Daily Weather History Graph

Search for Another Location

Airport:

Trip Planner

Search our weather history database for the weather conditions in past years. The results will help you decide how hot, cold, wet, or windy it might be!

Date:

Astronomy

Oct. 20, 2012 Rise Set
Actual Time 7:45 AM MDT 6:31 PM MDT
Civil Twilight 7:16 AM MDT 7:01 PM MDT
Nautical Twilight 6:42 AM MDT 7:34 PM MDT
Astronomical Twilight 6:09 AM MDT 8:07 PM MDT
Moon 1:29 PM MDT (10/20) 11:16 PM MDT (10/20)
Length of Visible Light 11h 44m
Length of Day
10h 46m
Waxing Crescent, 35% of the Moon is Illuminated
Oct 20
Waxing Crescent
Oct 21
First Quarter
Oct 29
Full
Nov 6
Last Quarter
Nov 13
New

Hourly Weather History & Observations

Time (MDT) Temp. Windchill Dew Point Humidity Pressure Visibility Wind Dir Wind Speed Gust Speed Precip Events Conditions
12:56 AM 52.9 °F - 26.1 °F 35% 29.72 in 10.0 mi South 10.4 mph - N/A   Overcast
1:56 AM 50.9 °F - 27.1 °F 40% 29.70 in 10.0 mi South 10.4 mph - N/A   Overcast
2:56 AM 54.0 °F - 24.1 °F 31% 29.67 in 10.0 mi South 11.5 mph - N/A   Overcast
3:56 AM 52.0 °F - 25.2 °F 35% 29.66 in 10.0 mi SSW 8.1 mph - N/A   Overcast
4:56 AM 50.9 °F - 25.2 °F 37% 29.64 in 10.0 mi SSE 8.1 mph - N/A   Overcast
5:56 AM 52.9 °F - 24.1 °F 33% 29.64 in 10.0 mi South 12.7 mph - N/A   Overcast
6:56 AM 52.9 °F - 23.0 °F 31% 29.64 in 10.0 mi SSW 10.4 mph - N/A   Overcast
7:56 AM 54.0 °F - 24.1 °F 31% 29.63 in 10.0 mi SSW 13.8 mph - N/A   Overcast
8:56 AM 52.0 °F - 26.1 °F 37% 29.63 in 10.0 mi South 15.0 mph - N/A   Overcast
9:56 AM 52.9 °F - 27.1 °F 37% 29.63 in 10.0 mi SSW 21.9 mph - N/A   Overcast
10:56 AM 52.9 °F - 32.9 °F 47% 29.63 in 10.0 mi SSW 17.3 mph - N/A   Overcast
11:56 AM 52.9 °F - 36.0 °F 53% 29.63 in 10.0 mi SW 24.2 mph - 0.00 in   Mostly Cloudy
12:56 PM 48.9 °F - 38.8 °F 68% 29.65 in 10.0 mi SSW 18.4 mph - N/A   Mostly Cloudy
1:56 PM 46.9 °F - 41.9 °F 83% 29.65 in 1.8 mi WSW 11.5 mph - 0.01 in Rain Light Rain
1:59 PM 46.4 °F 41.1 °F 42.8 °F 87% 29.81 in 3.0 mi WSW 11.5 mph - 0.00 in Rain Light Rain
2:14 PM 48.2 °F - 44.6 °F 87% 29.80 in 5.0 mi SSW 6.9 mph - 0.00 in Rain Light Rain
2:56 PM 52.0 °F - 39.9 °F 63% 29.60 in 10.0 mi SSW 17.3 mph - 0.00 in   Scattered Clouds
3:56 PM 52.9 °F - 36.0 °F 53% 29.60 in 10.0 mi SW 21.9 mph - N/A   Scattered Clouds
4:56 PM 52.9 °F - 34.9 °F 50% 29.61 in 10.0 mi SSW 21.9 mph - N/A   Partly Cloudy
5:56 PM 52.0 °F - 32.9 °F 48% 29.61 in 10.0 mi SSW 17.3 mph - N/A   Partly Cloudy
6:56 PM 47.8 °F - 32.0 °F 54% 29.62 in 10.0 mi South 8.1 mph - N/A   Clear
7:56 PM 46.9 °F - 32.9 °F 58% 29.63 in 10.0 mi SSW 3.5 mph - N/A   Clear
8:56 PM 45.9 °F 41.7 °F 32.9 °F 61% 29.65 in 10.0 mi SSE 8.1 mph - N/A   Partly Cloudy
9:56 PM 45.9 °F 40.4 °F 32.9 °F 61% 29.64 in 10.0 mi SSE 11.5 mph - N/A   Mostly Cloudy
10:56 PM 45.9 °F 40.8 °F 32.0 °F 58% 29.65 in 10.0 mi South 10.4 mph - N/A   Overcast
11:56 PM 45.0 °F 40.1 °F 31.1 °F 58% 29.65 in 10.0 mi South 9.2 mph - N/A   Partly Cloudy